This is the latest recevied weather packets stored in our database for station/object K5FEP. If no packets are shown the sender has not sent any weather packets the latest 10 day(s).
| Time | Temp. | Humidity | Pressure | Rain* | Wind** | Luminosity | Snow |
|---|---|---|---|---|---|---|---|
| 1777923568 | 25.56° C | 30% | 1012.6 hPa | 0 mm | - | 844 W/m² | - |
| 1777923266 | 25° C | 30% | 1012.6 hPa | 0 mm | - | 725 W/m² | - |
| 1777922964 | 25.56° C | 31% | 1012.5 hPa | 0 mm | - | 341 W/m² | - |
| 1777922661 | 25° C | 29% | 1012.7 hPa | 0 mm | - | 890 W/m² | - |
| 1777922360 | 24.44° C | 33% | 1012.9 hPa | 0 mm | - | 465 W/m² | - |
| 1777922058 | 24.44° C | 31% | 1013 hPa | 0 mm | - | 383 W/m² | - |
| 1777921753 | 25° C | 31% | 1013 hPa | 0 mm | - | 338 W/m² | - |
| 1777921449 | 23.89° C | 31% | 1013 hPa | 0 mm | - | 1020 W/m² | - |
| 1777921145 | 24.44° C | 29% | 1013 hPa | 0 mm | - | 249 W/m² | - |
| 1777920843 | 25° C | 29% | 1013 hPa | 0 mm | - | 565 W/m² | - |
| 1777920538 | 25.56° C | 28% | 1013.1 hPa | 0 mm | - | 569 W/m² | - |
| 1777920234 | 25.56° C | 29% | 1013 hPa | 0 mm | - | 1122 W/m² | - |
| 1777919930 | 25° C | 29% | 1013.3 hPa | 0 mm | - | 962 W/m² | - |
| 1777919628 | 25° C | 28% | 1013.1 hPa | 0 mm | - | 937 W/m² | - |
| 1777919325 | 25° C | 29% | 1013.1 hPa | 0 mm | - | 927 W/m² | - |
| 1777919023 | 24.44° C | 28% | 1013.3 hPa | 0 mm | - | 927 W/m² | - |
| 1777918719 | 24.44° C | 27% | 1013.5 hPa | 0 mm | - | 938 W/m² | - |
| 1777918417 | 24.44° C | 26% | 1013.6 hPa | 0 mm | - | 945 W/m² | - |
| 1777918116 | 24.44° C | 28% | 1013.7 hPa | 0 mm | - | 947 W/m² | - |
| 1777917814 | 25° C | 30% | 1013.4 hPa | 0 mm | - | 956 W/m² | - |
| 1777917512 | 24.44° C | 28% | 1013.5 hPa | 0 mm | - | 961 W/m² | - |
| 1777917208 | 23.89° C | 27% | 1013.6 hPa | 0 mm | - | 962 W/m² | - |
| 1777916907 | 23.89° C | 28% | 1013.4 hPa | 0 mm | - | 971 W/m² | - |
| 1777916604 | 23.89° C | 27% | 1013.6 hPa | 0 mm | - | 974 W/m² | - |
| 1777916300 | 23.89° C | 29% | 1013.6 hPa | 0 mm | - | 976 W/m² | - |
* Rain latest hour (hover to see other rain measurements)
** Current wind speed in m/s (hover to see current wind gust speed)